User: anonymous   Login
Location: Fort Wayne
(41.1310°N, 85.1290°W)
Time: 20:14:55
(UTC-04:00)
Language:

Cosmos 2227 Rocket - Orbit

View from above orbital plane
View from above orbital plane
View from above satellite
View from above satellite

Ground track
Ground track

The orbit data is extracted from the following two-line orbital elements,

1 22285U 92093B   16269.42198526  .00000261  00000-0  15915-3 0  9996
2 22285  71.0224  47.6858 0004434 199.0134 161.0824 14.15000869225080
Epoch (UTC): 25 September 2016 10:07:39
Eccentricity: 0.0004434
inclination: 71.0224°
perigee height: 839 km
apogee height: 845 km
right ascension of ascending node: 47.6858°
argument of perigee: 199.0134°
revolutions per day: 14.15000869
mean anomaly at epoch: 161.0824°
orbit number at epoch: 22508

The dashed part of the orbit path shows where the satellite is in the earth's shadow,  

DLR